DW9436 Weather Reports


time (UTC)temp
C
wind
direction
speed
KPH
gust
KPH
rain 1hr
cm
rain 24hr
cm
rain mn
cm
humidity
%
barometer
mb
20210920052523 7 298 0.0 3.2 0.00 0.03 0.03 50 1024.4
20210920052030 7 0 0.0 3.2 0.00 0.03 0.03 50 1024.3
20210920051559 7 0 0.0 3.2 0.00 0.03 0.03 50 1024.1
20210920051024 7 298 0.0 1.6 0.00 0.03 0.03 50 1024.0
20210920050524 7 0 0.0 1.6 0.00 0.03 0.03 51 1023.9
20210920050031 7 0 0.0 1.6 0.00 0.03 0.03 51 1023.9
20210920045530 7 0 0.0 1.6 0.00 0.03 0.03 51 1023.9
20210920045024 7 0 0.0 1.6 0.00 0.03 0.03 51 1023.8
20210920044606 7 0 0.0 1.6 0.00 0.03 0.03 51 1023.9
20210920044033 8 0 0.0 3.2 0.00 0.03 0.03 50 1023.8
20210920043523 8 0 0.0 3.2 0.00 0.03 0.03 50 1023.8
20210920043045 8 298 0.0 3.2 0.00 0.03 0.03 50 1023.7
20210920042523 8 0 0.0 3.2 0.00 0.03 0.03 48 1023.8
20210920042032 8 0 0.0 3.2 0.00 0.03 0.03 48 1023.7
20210920041542 8 0 0.0 3.2 0.00 0.03 0.03 48 1023.7
20210920041026 8 298 0.0 3.2 0.00 0.03 0.03 48 1023.5
20210920040526 9 0 0.0 1.6 0.00 0.03 0.03 47 1023.6
20210920040033 9 0 0.0 4.8 0.00 0.03 0.03 47 1023.4
20210920035539 9 298 0.0 4.8 0.00 0.03 0.03 47 1023.2
20210920035023 9 0 0.0 3.2 0.00 0.03 0.03 47 1023.2
20210920034615 9 0 0.0 3.2 0.00 0.03 0.03 47 1023.1
20210920034037 9 168 0.0 1.6 0.00 0.03 0.03 47 1023.1
20210920033524 10 0 0.0 1.6 0.00 0.03 0.03 46 1022.9
20210920033048 10 0 0.0 3.2 0.00 0.03 0.03 46 1022.9
20210920032523 10 168 0.0 3.2 0.00 0.03 0.03 46 1022.9
20210920032024 10 0 0.0 1.6 0.00 0.03 0.03 45 1022.7
20210920031557 10 0 0.0 1.6 0.00 0.03 0.03 45 1022.7
20210920031024 10 0 0.0 1.6 0.00 0.03 0.03 45 1022.7
20210920030525 10 0 0.0 3.2 0.00 0.03 0.03 45 1022.6
20210920030058 10 0 0.0 3.2 0.00 0.03 0.03 45 1022.5
20210920025524 10 0 0.0 1.6 0.00 0.03 0.03 45 1022.5
20210920025027 11 0 0.0 0.0 0.00 0.03 0.03 45 1022.5
20210920024557 11 0 0.0 1.6 0.00 0.03 0.03 45 1022.3
20210920024024 11 0 0.0 1.6 0.00 0.03 0.03 44 1022.2
20210920023524 11 0 0.0 1.6 0.00 0.03 0.03 43 1022.1
20210920023026 11 0 0.0 0.0 0.00 0.03 0.03 43 1022.2
20210920022529 12 0 0.0 0.0 0.00 0.03 0.03 42 1022.0
20210920022032 12 0 0.0 0.0 0.00 0.03 0.03 42 1021.9
20210920021608 12 0 0.0 0.0 0.00 0.03 0.03 42 1021.9
20210920021023 12 0 0.0 1.6 0.00 0.03 0.03 41 1022.0
20210920020525 12 0 0.0 1.6 0.00 0.03 0.03 41 1021.9
20210920020049 13 0 0.0 1.6 0.00 0.03 0.03 40 1021.8
20210920015523 13 0 0.0 1.6 0.00 0.03 0.03 40 1021.8
20210920015041 13 0 0.0 1.6 0.00 0.03 0.03 39 1021.8
20210920014530 13 0 0.0 4.8 0.00 0.03 0.03 39 1021.7
20210920014023 13 0 0.0 4.8 0.00 0.03 0.03 38 1021.7
20210920014007 14 167 0.0 3.2 0.00 0.03 0.03 39 1020.9
20210920013533 13 167 0.0 6.4 0.00 0.03 0.03 38 1021.8
20210920013038 13 0 0.0 6.4 0.00 0.03 0.03 38 1021.8
20210920012525 14 274 0.0 4.8 0.00 0.03 0.03 37 1021.9
20210920012024 14 0 0.0 4.8 0.00 0.03 0.03 37 1021.9
20210920011537 14 279 0.0 3.2 0.00 0.03 0.03 36 1021.9
20210920011023 14 279 0.0 3.2 0.00 0.03 0.03 36 1021.8
20210920010530 14 0 0.0 4.8 0.00 0.03 0.03 36 1021.7
20210920010105 14 0 0.0 6.4 0.00 0.03 0.03 36 1021.6
20210920005524 14 246 1.6 8.0 0.00 0.03 0.03 36 1021.6
20210920005033 14 178 3.2 8.0 0.00 0.03 0.03 35 1021.5
20210920004546 14 165 1.6 8.0 0.00 0.03 0.03 36 1021.4
20210920004023 14 157 3.2 8.0 0.00 0.03 0.03 35 1021.5
20210920003526 14 172 0.0 8.0 0.00 0.03 0.03 35 1021.4
20210920003044 14 318 1.6 8.0 0.00 0.03 0.03 36 1021.5
20210920002531 14 148 4.8 11.3 0.00 0.03 0.03 34 1021.5
20210920002023 15 167 1.6 11.3 0.00 0.03 0.03 34 1021.5
20210920001548 15 128 4.8 11.3 0.00 0.03 0.03 34 1021.6
20210920001024 15 0 1.6 9.7 0.00 0.03 0.03 34 1021.6
20210920000528 15 140 4.8 11.3 0.00 0.03 0.03 34 1021.6
20210920000032 15 158 6.4 11.3 0.00 0.03 0.03 33 1021.4
20210919235525 15 177 0.0 11.3 0.00 0.03 0.03 33 1021.5
20210919235034 15 185 1.6 11.3 0.00 0.03 0.03 33 1021.5
20210919234537 15 196 3.2 8.0 0.00 0.03 0.03 32 1021.5
20210919234528 15 196 3.2 8.0 0.00 0.03 0.03 32 1020.6
20210919234028 15 346 1.6 8.0 0.00 0.03 0.03 32 1021.6
20210919233523 15 197 1.6 9.7 0.00 0.03 0.03 33 1021.5
20210919233052 16 167 4.8 9.7 0.00 0.03 0.03 31 1021.6
20210919232523 16 324 1.6 9.7 0.00 0.03 0.03 31 1021.4
20210919232024 15 184 3.2 9.7 0.00 0.03 0.03 31 1021.3
20210919231610 16 283 1.6 4.8 0.00 0.03 0.03 33 1021.3
20210919231023 16 299 1.6 8.0 0.00 0.03 0.03 33 1021.4
20210919230539 15 306 3.2 8.0 0.00 0.03 0.03 34 1021.4
20210919230027 16 287 1.6 8.0 0.00 0.03 0.03 33 1021.4
20210919225556 15 332 3.2 8.0 0.00 0.03 0.03 33 1021.2
20210919225036 15 278 3.2 14.5 0.00 0.03 0.03 33 1021.3
20210919224648 15 202 4.8 14.5 0.00 0.03 0.03 33 1021.3
20210919224031 15 250 1.6 9.7 0.00 0.03 0.03 34 1021.4
20210919223531 15 213 1.6 8.0 0.00 0.03 0.03 35 1021.5
20210919223103 15 5 3.2 8.0 0.00 0.03 0.03 33 1021.5
20210919222526 15 325 1.6 8.0 0.00 0.03 0.03 32 1021.6
20210919222023 15 245 3.2 11.3 0.00 0.03 0.03 37 1021.3
20210919221635 15 255 3.2 16.1 0.00 0.03 0.03 37 1021.4
20210919221024 15 144 6.4 17.7 0.00 0.03 0.03 38 1021.4
20210919220538 15 179 6.4 17.7 0.00 0.03 0.03 38 1021.4
20210919220208 15 173 6.4 14.5 0.00 0.03 0.03 38 1021.5
20210919215535 15 329 3.2 11.3 0.00 0.03 0.03 38 1021.5
20210919215022 15 165 3.2 17.7 0.00 0.03 0.03 38 1021.5
20210919214621 14 159 8.0 17.7 0.00 0.03 0.03 38 1021.6
20210919214031 15 130 1.6 11.3 0.00 0.03 0.03 38 1021.7
20210919213524 15 211 4.8 12.9 0.00 0.03 0.03 38 1021.7
20210919213039 15 159 4.8 12.9 0.00 0.03 0.03 42 1021.7
20210919212535 15 198 4.8 12.9 0.00 0.03 0.03 40 1021.6
20210919212033 14 180 3.2 12.9 0.00 0.03 0.03 40 1021.5
20210919211553 13 159 4.8 12.9 0.00 0.03 0.03 38 1021.5
20210919211031 14 327 4.8 14.5 0.00 0.03 0.03 39 1021.7
20210919210535 14 182 6.4 14.5 0.00 0.03 0.03 41 1021.3
20210919210039 13 192 3.2 12.9 0.00 0.03 0.03 44 1021.6
20210919205530 13 303 3.2 16.1 0.00 0.03 0.03 42 1021.7
20210919205023 13 178 4.8 16.1 0.00 0.03 0.03 43 1021.8
20210919204546 13 153 6.4 17.7 0.00 0.03 0.03 43 1021.9
20210919204023 13 166 6.4 17.7 0.00 0.03 0.03 43 1021.8
20210919203523 13 148 3.2 11.3 0.00 0.03 0.03 43 1022.0
20210919203028 13 264 3.2 11.3 0.00 0.03 0.03 46 1021.9
20210919202525 13 163 1.6 11.3 0.00 0.03 0.03 44 1021.8
20210919202029 12 278 4.8 11.3 0.00 0.03 0.03 47 1021.8
20210919201531 13 201 3.2 14.5 0.00 0.03 0.03 47 1021.9
20210919201023 12 347 1.6 17.7 0.00 0.03 0.03 47 1021.7
20210919200524 12 136 1.6 17.7 0.00 0.03 0.03 48 1021.7
20210919200039 12 328 1.6 17.7 0.00 0.03 0.03 48 1021.7
20210919195534 12 144 4.8 17.7 0.00 0.03 0.03 51 1021.7
20210919195023 11 216 8.0 14.5 0.00 0.03 0.03 50 1021.7
20210919194556 12 152 3.2 9.7 0.00 0.03 0.03 51 1021.6
20210919194024 12 168 3.2 12.9 0.00 0.03 0.03 51 1021.7
20210919193554 12 155 1.6 12.9 0.00 0.03 0.03 53 1021.6
20210919193026 11 316 3.2 9.7 0.00 0.03 0.03 51 1021.5
20210919192534 12 332 3.2 11.3 0.00 0.03 0.03 52 1021.7
20210919192024 11 157 3.2 16.1 0.00 0.03 0.03 54 1021.6
20210919191659 11 142 8.0 16.1 0.00 0.03 0.03 53 1020.5
20210919191558 11 156 8.0 17.7 0.00 0.03 0.03 51 1021.7
20210919191106 11 182 6.4 17.7 0.00 0.03 0.03 51 1021.5
20210919190533 11 113 3.2 22.5 0.00 0.03 0.03 52 1021.6
20210919190046 11 146 4.8 22.5 0.00 0.03 0.03 50 1021.6
20210919185523 11 156 4.8 14.5 0.00 0.03 0.03 48 1021.6
20210919185022 11 185 4.8 19.3 0.00 0.03 0.03 51 1021.7
20210919184554 11 350 4.8 19.3 0.00 0.03 0.03 51 1021.5
20210919184023 11 165 3.2 19.3 0.00 0.03 0.03 54 1021.5
20210919183523 11 197 3.2 12.9 0.00 0.03 0.03 52 1021.4
20210919183103 11 221 3.2 12.9 0.00 0.03 0.03 54 1021.4
20210919182524 11 159 3.2 12.9 0.00 0.03 0.03 53 1021.4
20210919182024 11 318 1.6 17.7 0.00 0.03 0.03 57 1021.4
20210919181536 10 314 3.2 17.7 0.00 0.03 0.03 57 1021.5
20210919181034 10 157 3.2 12.9 0.00 0.03 0.03 58 1021.6
20210919180524 10 229 3.2 14.5 0.00 0.03 0.03 59 1021.6
20210919180057 10 167 1.6 14.5 0.00 0.03 0.03 61 1021.5
20210919175525 9 143 8.0 16.1 0.00 0.03 0.03 60 1021.6
20210919175023 9 70 8.0 16.1 0.00 0.03 0.03 63 1021.5
20210919174531 10 143 8.0 16.1 0.00 0.03 0.03 62 1021.6
20210919174036 10 154 3.2 14.5 0.00 0.03 0.03 64 1021.6
20210919173538 10 117 4.8 19.3 0.00 0.03 0.03 63 1021.4
20210919173045 9 194 6.4 19.3 0.00 0.03 0.03 63 1021.4
20210919172524 10 171 3.2 14.5 0.00 0.03 0.03 64 1021.1
20210919172023 9 142 4.8 14.5 0.00 0.03 0.03 65 1021.2
20210919171608 10 177 3.2 16.1 0.00 0.03 0.03 64 1021.0
20210919171024 9 321 3.2 16.1 0.00 0.03 0.03 65 1021.0
20210919170524 9 185 3.2 22.5 0.00 0.03 0.03 66 1021.0
20210919170132 9 273 8.0 22.5 0.00 0.03 0.03 66 1020.8
20210919165532 9 213 3.2 19.3 0.00 0.03 0.03 66 1021.0
20210919165023 8 342 4.8 19.3 0.00 0.03 0.03 66 1020.8
20210919164538 8 167 6.4 17.7 0.00 0.03 0.03 66 1020.7
20210919164023 8 171 4.8 17.7 0.00 0.03 0.03 67 1020.7
20210919163524 8 203 4.8 16.1 0.00 0.03 0.03 68 1020.6
20210919163033 8 184 4.8 16.1 0.00 0.03 0.03 69 1020.6
20210919162531 8 200 3.2 17.7 0.00 0.03 0.03 67 1020.5
20210919162022 8 82 8.0 17.7 0.00 0.03 0.03 68 1020.2
20210919161552 8 329 4.8 17.7 0.00 0.03 0.03 70 1020.4
20210919161024 8 155 4.8 14.5 0.00 0.03 0.03 72 1020.3
20210919160531 8 164 6.4 14.5 0.00 0.03 0.03 72 1020.2
20210919160122 8 285 3.2 11.3 0.00 0.03 0.03 73 1020.1
20210919155523 8 128 3.2 11.3 0.00 0.03 0.03 74 1020.1
20210919155028 7 188 4.8 11.3 0.00 0.03 0.03 73 1020.0
20210919154556 7 171 4.8 11.3 0.00 0.03 0.03 73 1019.9
20210919154023 7 169 4.8 9.7 0.00 0.03 0.03 74 1019.9
20210919153547 7 178 1.6 12.9 0.00 0.03 0.03 75 1020.0
20210919153519 8 178 3.2 11.3 0.00 0.03 0.03 75 1018.9
20210919153050 7 169 3.2 11.3 0.00 0.03 0.03 76 1019.1
20210919153043 7 167 3.2 12.9 0.00 0.03 0.03 76 1020.1
20210919152545 7 291 1.6 11.3 0.00 0.03 0.03 77 1020.0
20210919152520 7 291 1.6 11.3 0.00 0.03 0.03 77 1019.0
20210919152023 7 327 1.6 16.1 0.00 0.03 0.03 77 1019.8
20210919152017 7 327 1.6 14.5 0.00 0.03 0.03 77 1018.7
20210919151557 7 126 4.8 16.1 0.00 0.03 0.03 78 1019.8
20210919151548 7 159 4.8 14.5 0.00 0.03 0.03 78 1018.8
20210919151035 7 175 3.2 11.3 0.00 0.03 0.03 78 1018.7
20210919150522 7 191 1.6 17.7 0.00 0.03 0.03 78 1019.7
20210919150420 7 182 3.2 17.7 0.00 0.03 0.03 79 1019.7
20210919123534 8 168 9.7 25.7 0.00 0.03 0.03 85 1016.2
20210919123522 8 94 8.0 25.7 0.00 0.03 0.03 85 1017.1
20210919123037 8 163 6.4 30.6 0.03 0.03 0.03 85 1015.8
20210919123029 8 163 6.4 30.6 0.00 0.03 0.03 85 1016.6
20210919122528 8 178 9.7 30.6 0.03 0.03 0.03 85 1015.8
20210919122523 8 178 9.7 30.6 0.03 0.03 0.03 84 1016.7
20210919122032 8 162 4.8 16.1 0.03 0.03 0.03 85 1015.8
20210919122023 8 193 4.8 17.7 0.03 0.03 0.03 85 1016.7
20210919121637 8 182 6.4 19.3 0.03 0.03 0.03 86 1015.7
20210919121602 8 162 6.4 19.3 0.03 0.03 0.03 86 1016.6
20210919121034 8 138 8.0 22.5 0.03 0.03 0.03 87 1015.5
20210919120549 8 45 8.0 22.5 0.03 0.03 0.03 88 1016.3
20210919120526 8 163 8.0 22.5 0.03 0.03 0.03 88 1015.4
20210919120103 8 184 8.0 24.1 0.03 0.03 0.03 88 1016.3
20210919120041 8 99 6.4 24.1 0.03 0.03 0.03 89 1015.4
20210919115530 8 190 11.3 29.0 0.03 0.03 0.03 89 1015.5
20210919115524 8 120 11.3 27.4 0.03 0.03 0.03 88 1016.3
20210919115035 8 209 3.2 27.4 0.03 0.03 0.03 89 1016.4
20210919115029 8 169 4.8 29.0 0.03 0.03 0.03 90 1015.5
20210919114554 8 221 8.0 32.2 0.03 0.03 0.03 90 1016.4
20210919114547 8 221 9.7 32.2 0.03 0.03 0.03 90 1015.6
20210919114025 8 113 4.8 32.2 0.03 0.03 0.03 91 1015.7
20210919113525 8 223 8.0 25.7 0.03 0.03 0.03 91 1016.6
20210919113055 8 211 8.0 22.5 0.03 0.03 0.03 91 1016.2
20210919113025 8 156 9.7 24.1 0.00 0.00 0.00 92 1015.5
20210919112535 8 195 9.7 22.5 0.00 0.00 0.00 91 1016.3
20210919112038 8 217 8.0 22.5 0.00 0.00 0.00 91 1016.3
20210919111541 8 201 6.4 20.9 0.00 0.00 0.00 91 1016.1
20210919111024 7 210 8.0 24.1 0.00 0.00 0.00 90 1016.0
20210919110529 8 157 11.3 32.2 0.00 0.00 0.00 90 1016.0
20210919110047 7 136 8.0 32.2 0.00 0.00 0.00 90 1016.4
20210919105525 7 205 8.0 27.4 0.00 0.00 0.00 91 1016.2
20210919105024 7 164 8.0 22.5 0.00 0.00 0.00 91 1016.2
20210919104552 7 153 9.7 20.9 0.00 0.00 0.00 91 1016.3
20210919104023 7 136 6.4 24.1 0.00 0.00 0.00 91 1016.2
20210919103605 7 160 9.7 24.1 0.00 0.00 0.00 90 1016.4
20210919103052 7 138 9.7 24.1 0.00 0.00 0.00 90 1016.6
20210919102528 7 194 9.7 27.4 0.00 0.00 0.00 89 1016.5
20210919102028 7 91 8.0 29.0 0.00 0.00 0.00 88 1016.7
20210919101619 7 208 11.3 29.0 0.00 0.00 0.00 87 1016.9
20210919101032 8 134 11.3 29.0 0.00 0.00 0.00 87 1017.0
20210919100524 8 153 11.3 29.0 0.00 0.00 0.00 87 1017.1
20210919100037 8 178 6.4 33.8 0.00 0.00 0.00 86 1016.8
20210919095523 8 173 9.7 33.8 0.00 0.00 0.00 87 1016.6
20210919095024 8 23 8.0 32.2 0.00 0.00 0.00 87 1017.0
20210919094606 8 192 9.7 32.2 0.00 0.00 0.00 87 1016.8
20210919094040 7 177 8.0 30.6 0.00 0.00 0.00 86 1016.7
20210919093526 7 217 9.7 33.8 0.00 0.00 0.00 86 1016.9
20210919093040 7 164 8.0 33.8 0.00 0.00 0.00 86 1017.1
20210919092538 7 67 12.9 25.7 0.00 0.00 0.00 85 1017.5
20210919092026 7 168 8.0 24.1 0.00 0.00 0.00 85 1017.3
20210919091538 8 197 6.4 30.6 0.00 0.00 0.00 85 1017.3
20210919091022 8 106 8.0 30.6 0.00 0.00 0.00 83 1017.5
20210919090526 8 112 9.7 22.5 0.00 0.00 0.00 83 1017.4
20210919090035 8 161 6.4 19.3 0.00 0.00 0.00 82 1017.5
20210919085536 8 42 8.0 19.3 0.00 0.00 0.00 82 1017.5
20210919085025 8 316 6.4 27.4 0.00 0.00 0.00 82 1017.3
20210919084547 8 136 9.7 27.4 0.00 0.00 0.00 82 1017.3
20210919084032 8 352 8.0 30.6 0.00 0.00 0.00 82 1017.3
20210919083521 8 172 11.3 30.6 0.00 0.00 0.00 82 1017.6
20210919083044 8 176 6.4 30.6 0.00 0.00 0.00 83 1017.7
20210919082552 8 124 9.7 25.7 0.00 0.00 0.00 83 1017.7
20210919082024 8 174 9.7 25.7 0.00 0.00 0.00 81 1017.8
20210919081547 8 123 8.0 20.9 0.00 0.00 0.00 80 1017.9
20210919081022 8 135 6.4 22.5 0.00 0.00 0.00 79 1017.8
20210919080523 8 146 9.7 22.5 0.00 0.00 0.00 78 1017.9
20210919080052 8 165 8.0 19.3 0.00 0.00 0.00 78 1017.9
20210919075529 8 238 6.4 35.4 0.00 0.00 0.00 78 1018.1
20210919075022 8 146 11.3 35.4 0.00 0.00 0.00 78 1018.1
20210919074612 8 146 9.7 29.0 0.00 0.00 0.00 79 1018.3
20210919074025 8 221 9.7 24.1 0.00 0.00 0.00 79 1018.5
20210919073523 8 189 9.7 22.5 0.00 0.00 0.00 78 1018.4
20210919073055 8 234 9.7 19.3 0.00 0.00 0.00 77 1018.5
20210919072539 8 155 8.0 19.3 0.00 0.00 0.00 76 1018.4
20210919072034 8 179 9.7 22.5 0.00 0.00 0.00 75 1018.6
20210919071610 8 190 9.7 22.5 0.00 0.00 0.00 75 1018.6
20210919071029 9 198 6.4 27.4 0.00 0.00 0.00 74 1018.7
20210919070536 9 208 8.0 27.4 0.00 0.00 0.00 73 1018.9
20210919070027 9 188 8.0 20.9 0.00 0.00 0.00 72 1018.9
20210919065529 9 189 8.0 24.1 0.00 0.00 0.00 72 1018.9
20210919065023 9 153 11.3 32.2 0.00 0.00 0.00 72 1019.0
20210919064547 9 204 9.7 32.2 0.00 0.00 0.00 71 1019.1
20210919064030 9 180 8.0 32.2 0.00 0.00 0.00 71 1019.2
20210919063526 9 144 12.9 32.2 0.00 0.00 0.00 70 1019.4
20210919063118 9 186 8.0 30.6 0.00 0.00 0.00 69 1019.4
20210919062521 9 352 9.7 30.6 0.00 0.00 0.00 69 1019.2
20210919062029 9 196 9.7 29.0 0.00 0.00 0.00 68 1019.3
20210919061542 9 171 6.4 33.8 0.00 0.00 0.00 66 1019.4
20210919061022 9 119 11.3 33.8 0.00 0.00 0.00 66 1019.4
20210919060524 9 138 9.7 25.7 0.00 0.00 0.00 64 1019.7
20210919060030 9 182 8.0 20.9 0.00 0.00 0.00 61 1019.5
20210919055521 9 151 8.0 20.9 0.00 0.00 0.00 60 1019.5
20210919055023 9 163 8.0 16.1 0.00 0.00 0.00 57 1019.6
20210919054602 9 115 6.4 25.7 0.00 0.00 0.00 54 1019.6
20210919054046 9 180 6.4 25.7 0.00 0.00 0.00 53 1019.7
20210919053524 10 147 8.0 22.5 0.00 0.00 0.00 53 1019.7
20210919053025 10 248 8.0 22.5 0.00 0.00 0.00 50 1019.5
20210919052536 10 145 6.4 20.9 0.00 0.00 0.00 46 1019.5